Wind_Speed
4 3 3 3 4 3 3 4 4 4 5 4 4 4 3 3 3 3 3 3 3 3 4 3 3 3 3 3 4 4 4 4 4 5 5 5 5 5 5 6 6 6 7
5 4 4 4 5 5 5 6 6 6 6 6 5 5 5 4 4 4 4 4 4 4 5 5 5 5 4 4 5 5 5 6 6 6 6 6 6 6 7 7 7 7 8
5 5 5 6 6 7 8 8 8 7 7 7 6 6 5 5 5 5 5 5 5 5 5 5 5 6 6 6 6 6 6 7 7 6 6 7 7 7 8 8 8 8 9
6 6 6 7 7 7 9 8 8 8 8 8 7 7 6 6 6 6 6 6 6 5 5 6 6 6 6 6 6 6 6 6 6 7 7 7 7 8 8 8 8 9 9
6 6 6 7 7 8 8 7 8 7 8 8 8 8 8 7 7 7 6 6 6 6 6 6 6 6 6 6 6 6 6 6 7 7 7 7 7 8 8 8 8 9 10
6 6 6 7 7 7 6 6 6 6 7 8 8 8 8 7 7 7 7 7 7 7 7 6 6 5 6 6 6 6 6 7 7 7 7 7 7 8 8 8 8 9 10
6 6 6 6 7 7 6 5 5 5 7 7 8 8 7 7 7 7 8 8 8 7 7 7 7 7 6 7 7 7 7 7 8 7 7 7 7 7 7 7 7 8 9
6 6 7 7 7 7 7 7 6 6 6 6 6 7 7 7 7 7 8 8 8 9 8 8 8 8 8 7 7 7 7 7 7 8 7 7 7 7 7 8 8 9 8
6 6 7 7 7 7 7 7 6 6 6 6 7 7 7 7 7 8 8 9 9 9 9 9 9 9 9 9 8 8 7 7 7 7 7 8 8 7 8 8 8 9 9
7 7 8 7 8 8 8 8 7 7 7 8 8 8 8 8 8 8 8 9 9 9 9 10 9 9 9 9 9 9 9 7 7 7 7 8 8 8 8 8 8 9 9
9 9 9 8 9 9 8 8 8 8 9 9 9 9 9 9 9 9 9 9 9 9 9 9 9 9 9 9 10 10 9 9 9 8 8 9 9 9 8 8 8 8 9
9 10 9 9 9 9 9 8 8 9 10 10 9 10 10 10 10 10 10 10 10 10 10 9 9 9 9 10 10 10 10 10 10 10 10 10 10 10 9 8 8 9 9
10 10 10 10 10 9 9 9 9 9 10 10 10 10 10 10 10 10 10 10 10 11 11 10 11 10 10 10 10 10 10 10 10 10 10 10 10 10 10 9 9 9 9
10 11 11 11 11 11 10 10 10 10 9 9 9 10 10 11 10 10 10 10 11 11 11 11 11 11 11 10 10 10 10 11 10 10 10 10 10 11 11 11 10 10 10
10 11 12 11 12 12 12 11 11 11 10 10 10 10 10 11 11 10 11 11 11 11 12 12 12 11 11 11 10 10 10 10 10 10 10 10 10 10 11 12 11 11 11
11 11 12 12 13 13 13 12 12 11 11 11 11 10 10 10 11 10 10 10 11 11 11 11 12 12 12 11 11 11 10 10 10 9 10 10 10 10 10 11 11 11 12
12 12 12 12 13 14 14 14 13 12 12 12 11 11 11 10 10 10 10 10 10 10 11 11 12 12 12 12 11 11 11 10 9 10 9 10 10 10 10 10 11 12 12
12 13 13 13 14 14 14 15 14 13 13 12 12 12 11 11 11 11 11 11 11 11 11 11 12 12 12 11 11 11 11 10 10 10 10 10 10 10 10 10 9 9 10
13 14 14 14 14 14 14 14 14 14 14 13 13 13 12 12 12 13 13 12 12 11 11 12 12 12 12 12 12 13 13 12 12 11 11 11 11 10 10 10 10 10 10
12 13 13 12 13 13 13 13 13 14 14 14 14 15 15 14 14 14 14 14 13 13 13 13 13 13 13 14 14 14 13 13 13 13 13 12 12 11 11 11 11 11 11
13 13 13 13 12 13 13 13 13 13 15 15 15 16 16 16 15 15 15 15 14 14 14 14 14 14 14 14 15 15 14 14 13 13 13 13 12 12 11 11 11 11 12
14 14 13 13 13 14 14 14 13 14 15 15 16 16 16 16 15 15 15 16 16 16 15 15 16 16 16 15 15 15 14 14 14 14 13 12 12 12 12 12 11 11 12
14 14 13 13 14 14 14 14 15 15 15 16 16 16 16 15 15 15 15 15 16 17 17 17 17 17 16 16 15 15 14 14 14 14 14 13 13 12 12 12 12 12 12
13 13 13 14 14 14 15 15 16 16 16 16 16 16 16 16 15 15 15 15 16 17 18 17 17 17 17 16 16 16 16 15 14 14 14 14 13 13 13 13 12 12 13
13 13 14 15 15 16 16 16 17 17 17 17 17 17 17 17 16 16 16 16 17 18 18 18 17 17 17 16 16 16 16 15 15 15 15 15 15 14 14 14 14 13 13
13 14 14 15 15 16 16 17 17 17 17 17 17 18 18 18 17 17 17 18 17 18 18 18 18 18 17 17 17 17 16 16 16 16 16 16 16 15 15 15 15 14 14
Wind_Direction
236 238 245 262 273 276 275 272 269 262 256 251 247 247 242 242 240 235 239 250 255 258 263 266 265 258 249 242 240 236 231 227 230 228 229 229 230 233 236 237 232 227 225
244 245 256 270 276 279 277 277 272 266 262 260 256 254 246 244 249 250 252 255 255 254 258 258 260 255 249 247 245 241 238 234 237 233 232 232 236 238 237 238 241 241 241
245 251 261 274 283 284 280 278 274 267 260 253 253 255 250 253 255 253 253 255 252 253 257 258 258 258 250 249 247 244 239 236 237 236 236 234 237 238 238 239 242 241 242
248 255 266 277 283 283 284 281 272 262 256 252 252 253 254 258 260 255 255 253 251 252 255 255 256 257 253 249 246 245 242 238 240 244 242 237 238 238 239 242 244 242 242
251 257 270 279 282 285 287 282 269 263 259 257 254 252 253 251 256 258 258 255 252 252 256 255 259 255 253 250 247 248 247 242 244 247 247 244 245 241 240 240 244 244 246
252 260 273 280 283 286 288 284 272 265 258 257 252 249 249 252 255 256 255 256 255 251 251 254 258 253 249 250 246 247 249 246 245 248 252 250 247 244 242 241 243 246 249
260 266 272 280 284 287 288 279 270 266 264 260 257 250 251 256 259 256 252 253 253 252 251 251 256 253 253 250 249 248 250 252 252 250 255 251 249 250 247 245 248 252 256
268 273 274 273 277 282 284 278 269 265 267 264 258 253 261 261 261 259 255 254 255 254 254 254 258 256 252 253 253 254 254 250 250 249 252 252 250 250 249 251 253 256 261
270 274 275 274 273 280 282 278 272 271 269 264 260 263 264 267 262 258 260 261 260 258 257 256 258 258 255 254 256 255 254 252 250 248 249 249 248 250 251 255 257 259 264
265 268 271 273 276 279 279 273 267 265 265 262 260 262 264 265 263 263 265 266 262 259 257 257 255 255 255 254 255 252 252 251 251 250 248 248 249 250 254 258 258 260 262
265 267 270 271 275 277 275 274 276 272 267 263 261 265 266 264 264 267 266 267 266 262 258 255 252 253 253 255 254 251 251 251 251 250 249 249 249 250 254 257 257 258 262
265 267 271 271 272 273 273 277 279 278 272 265 263 265 267 268 266 269 269 267 267 262 259 257 254 255 257 258 257 253 252 249 251 251 253 251 251 250 254 261 258 258 262
265 267 268 268 269 270 271 276 278 278 275 270 270 268 267 265 268 269 268 267 266 261 261 260 257 258 259 259 259 258 254 252 255 251 251 249 252 251 253 259 259 255 258
264 265 268 269 267 268 270 273 273 274 274 272 273 270 265 264 267 266 263 262 260 259 258 258 256 257 257 256 258 261 260 259 258 253 250 252 253 256 256 258 260 259 259
264 265 267 267 267 267 267 268 270 270 271 272 272 270 269 267 266 264 263 261 260 259 256 255 253 252 252 252 256 260 261 262 264 263 256 256 256 256 258 258 261 260 258
264 266 268 266 266 266 266 267 268 270 269 267 268 268 267 265 265 266 263 261 260 258 256 254 253 251 251 251 254 258 259 260 260 261 259 258 257 256 257 255 254 255 257
267 269 271 271 270 268 268 268 267 268 268 266 265 266 266 264 265 263 260 258 256 256 256 254 253 252 253 253 253 255 257 255 255 257 258 260 261 260 256 253 255 253 254
270 271 274 274 271 269 266 266 266 267 267 266 266 269 268 264 262 265 263 259 256 254 254 254 253 254 253 255 252 253 253 253 253 255 257 259 260 260 257 256 259 255 250
272 271 274 274 271 271 270 269 265 265 265 266 266 267 265 266 267 268 267 263 259 257 256 257 256 256 256 256 255 255 255 254 256 257 257 259 260 261 260 259 259 259 258
272 272 273 277 274 270 273 277 273 268 266 266 268 269 268 269 269 269 269 266 264 261 259 258 257 256 256 256 255 256 257 255 256 256 257 260 261 263 263 264 263 264 263
271 274 273 274 274 272 272 277 276 273 268 269 271 272 271 272 270 267 265 264 263 262 259 256 256 257 255 256 256 256 257 256 257 257 259 260 261 261 262 264 264 264 264
271 272 273 271 271 272 274 276 278 277 275 273 273 273 273 273 269 265 264 261 261 261 259 257 256 257 257 257 254 255 254 255 257 259 261 262 261 260 262 264 264 263 264
273 273 272 273 274 276 275 274 276 280 277 276 275 273 273 274 270 265 262 261 260 259 257 256 256 256 255 254 252 252 252 253 256 258 259 260 260 260 261 263 265 264 262
273 272 272 271 273 277 277 275 277 279 280 277 275 273 272 272 269 265 265 263 262 259 256 254 254 253 253 254 253 253 252 253 254 254 257 259 260 260 262 263 266 267 263
275 274 273 271 272 273 274 275 275 275 277 277 276 275 273 271 268 265 266 264 262 260 257 255 254 253 254 255 254 253 253 253 254 255 255 258 260 261 262 263 265 265 263
280 278 274 273 274 274 273 274 274 274 275 277 275 277 276 272 267 266 266 266 262 258 255 255 256 257 255 255 253 252 253 255 257 255 254 256 259 261 263 264 264 265 264
Height
5879 5879 5878 5878 5877 5877 5877 5876 5876 5875 5875 5875 5874 5874 5874 5874 5874 5874 5874 5874 5873 5873 5873 5873 5872 5872 5871 5871 5871 5871 5871 5871 5871 5871 5872 5872 5872 5872 5872 5873 5873 5873 5873
5878 5878 5877 5877 5877 5876 5875 5875 5874 5874 5873 5873 5873 5873 5873 5873 5873 5873 5873 5873 5872 5872 5872 5871 5871 5871 5870 5870 5870 5870 5870 5870 5870 5871 5871 5871 5871 5871 5872 5872 5872 5872 5872
5877 5877 5876 5876 5876 5875 5873 5872 5871 5871 5871 5871 5872 5872 5872 5872 5872 5871 5872 5872 5871 5871 5871 5870 5870 5869 5869 5869 5869 5869 5869 5869 5869 5869 5869 5870 5870 5870 5870 5870 5870 5871 5871
5875 5875 5875 5875 5874 5873 5870 5868 5867 5867 5868 5869 5870 5870 5870 5870 5870 5870 5870 5870 5870 5869 5869 5869 5869 5868 5868 5868 5867 5867 5868 5868 5868 5868 5868 5868 5868 5868 5869 5869 5869 5869 5869
5874 5874 5874 5873 5872 5871 5868 5865 5863 5864 5866 5867 5868 5868 5868 5869 5869 5869 5868 5868 5868 5868 5868 5868 5868 5867 5867 5867 5866 5866 5866 5866 5867 5867 5867 5867 5867 5867 5867 5867 5867 5867 5867
5873 5873 5872 5872 5871 5870 5868 5865 5863 5863 5864 5864 5865 5866 5866 5867 5867 5867 5867 5867 5867 5867 5867 5866 5866 5866 5866 5865 5865 5865 5865 5865 5865 5865 5865 5865 5865 5865 5866 5866 5866 5866 5866
5872 5872 5871 5870 5870 5869 5868 5866 5864 5863 5863 5862 5862 5863 5865 5865 5865 5865 5865 5865 5865 5865 5865 5865 5865 5865 5864 5864 5863 5864 5864 5864 5863 5864 5864 5864 5864 5864 5864 5864 5864 5864 5864
5871 5870 5870 5869 5869 5868 5867 5866 5865 5864 5862 5861 5861 5863 5863 5864 5864 5864 5864 5864 5863 5863 5863 5863 5863 5863 5863 5863 5862 5862 5862 5862 5862 5862 5862 5862 5862 5862 5862 5862 5862 5862 5862
5869 5868 5868 5868 5867 5867 5866 5865 5864 5864 5863 5862 5862 5862 5862 5862 5862 5862 5862 5862 5862 5862 5862 5862 5861 5861 5861 5861 5861 5861 5861 5860 5861 5861 5860 5860 5860 5861 5861 5860 5860 5860 5859
5867 5867 5866 5866 5865 5865 5864 5864 5863 5862 5862 5861 5861 5861 5861 5861 5860 5860 5860 5860 5860 5860 5860 5860 5860 5859 5859 5859 5859 5859 5859 5859 5859 5859 5859 5859 5859 5859 5859 5859 5859 5858 5858
5865 5865 5864 5864 5863 5863 5862 5862 5861 5861 5860 5860 5860 5859 5859 5859 5858 5858 5858 5858 5858 5858 5858 5858 5858 5858 5857 5857 5857 5857 5857 5857 5857 5857 5857 5857 5857 5857 5857 5857 5857 5856 5856
5863 5863 5862 5862 5861 5861 5860 5860 5860 5859 5859 5858 5858 5858 5857 5857 5856 5856 5856 5856 5856 5856 5855 5856 5856 5856 5855 5855 5855 5855 5855 5855 5855 5855 5855 5855 5855 5855 5855 5855 5855 5855 5854
5861 5861 5860 5860 5859 5859 5859 5858 5858 5857 5857 5856 5856 5855 5855 5855 5854 5854 5854 5854 5854 5853 5853 5853 5853 5853 5853 5853 5853 5853 5853 5853 5853 5853 5853 5853 5853 5853 5853 5853 5853 5853 5852
5859 5858 5858 5858 5857 5857 5857 5856 5856 5855 5855 5854 5854 5853 5853 5852 5852 5852 5851 5851 5851 5851 5851 5851 5851 5851 5851 5851 5851 5851 5851 5851 5851 5851 5851 5851 5851 5851 5851 5851 5850 5851 5850
5856 5856 5855 5855 5855 5855 5854 5854 5853 5853 5853 5852 5852 5851 5850 5850 5850 5849 5849 5849 5848 5848 5848 5849 5849 5849 5849 5849 5849 5849 5849 5849 5849 5848 5849 5849 5848 5848 5848 5848 5848 5848 5848
5854 5853 5853 5852 5852 5852 5852 5851 5851 5850 5850 5850 5849 5849 5848 5848 5847 5847 5847 5846 5846 5846 5846 5846 5846 5846 5847 5847 5847 5847 5847 5847 5847 5847 5846 5846 5846 5846 5846 5846 5845 5845 5845
5851 5851 5850 5850 5849 5849 5849 5848 5848 5847 5847 5847 5846 5846 5845 5845 5844 5844 5844 5844 5843 5843 5843 5843 5843 5844 5844 5844 5844 5844 5844 5844 5844 5844 5844 5844 5844 5844 5844 5843 5843 5843 5842
5848 5848 5847 5847 5847 5846 5846 5845 5845 5844 5844 5844 5843 5843 5842 5842 5842 5841 5841 5841 5841 5841 5841 5841 5841 5841 5841 5842 5842 5842 5842 5842 5842 5842 5842 5842 5841 5841 5841 5841 5841 5840 5840
5845 5845 5844 5844 5843 5843 5842 5842 5841 5841 5841 5841 5840 5840 5839 5839 5839 5838 5838 5838 5838 5838 5838 5838 5838 5838 5839 5839 5839 5839 5839 5839 5839 5839 5839 5839 5839 5839 5839 5838 5838 5838 5838
5842 5842 5841 5841 5840 5840 5839 5839 5838 5838 5838 5837 5837 5836 5836 5836 5835 5835 5835 5835 5834 5835 5835 5835 5835 5836 5836 5836 5836 5836 5836 5837 5837 5837 5836 5836 5836 5836 5836 5836 5835 5835 5835
5839 5839 5838 5838 5837 5837 5837 5836 5835 5834 5834 5833 5833 5832 5832 5831 5831 5830 5830 5831 5831 5831 5831 5832 5832 5832 5833 5833 5833 5833 5833 5833 5834 5834 5834 5834 5833 5833 5833 5833 5833 5833 5832
5836 5836 5835 5835 5834 5834 5833 5833 5832 5831 5831 5830 5829 5828 5827 5827 5826 5826 5826 5826 5827 5827 5828 5828 5829 5829 5829 5830 5830 5830 5830 5831 5830 5830 5831 5831 5830 5830 5830 5830 5830 5830 5830
5832 5832 5832 5831 5831 5830 5830 5829 5829 5828 5827 5826 5825 5824 5823 5822 5822 5821 5821 5822 5822 5823 5824 5824 5825 5825 5826 5826 5826 5827 5827 5827 5827 5827 5827 5827 5827 5827 5827 5827 5827 5826 5826
5829 5828 5828 5827 5827 5827 5826 5826 5825 5824 5823 5822 5821 5820 5819 5818 5817 5817 5817 5817 5818 5818 5819 5820 5820 5821 5822 5822 5822 5823 5823 5823 5824 5824 5824 5824 5824 5824 5824 5824 5824 5823 5823
5825 5824 5824 5823 5823 5822 5822 5821 5821 5820 5819 5818 5817 5815 5815 5814 5813 5813 5813 5813 5813 5814 5815 5815 5816 5817 5817 5818 5818 5819 5819 5820 5820 5820 5821 5821 5821 5821 5821 5820 5820 5820 5820
5821 5821 5820 5819 5819 5818 5818 5817 5816 5815 5814 5813 5812 5811 5810 5809 5809 5809 5809 5809 5809 5809 5810 5811 5811 5812 5813 5814 5814 5815 5816 5816 5816 5816 5817 5817 5817 5817 5817 5816 5816 5816 5816